• In Kazakhstan
  • List of Countries
  • For 7 days
  • Water Temperature
  • Satellite Maps
  • Weather Map
  • News
  • Weather Widgets
  • user-avatar
    Login

    Hourly Weather Indianapolis

    Today, 22 November, Wednesday

    Time Temperature Precipitation Wind Pressure Humidity
    00:00 -3°C° 0 mm 4 mps 746 mmHg 67%
    01:00 -3°C° 0 mm 4 mps 746 mmHg 67%
    02:00 -3°C° 0 mm 4 mps 746 mmHg 68%
    03:00 -2°C° 0 mm 3 mps 747 mmHg 68%
    04:00 -2°C° 0 mm 3 mps 747 mmHg 69%
    05:00 -4°C° 0 mm 3 mps 748 mmHg 69%
    06:00 -4°C° 0 mm 3 mps 749 mmHg 70%
    07:00 -2°C° 0 mm 3 mps 749 mmHg 66%
    08:00 -1°C° 0 mm 3 mps 749 mmHg 62%
    09:00 0°C° 0 mm 3 mps 750 mmHg 58%
    10:00 +1°C° 0 mm 3 mps 749 mmHg 55%
    11:00 +2°C° 0 mm 2 mps 749 mmHg 51%
    12:00 +3°C° 0 mm 2 mps 749 mmHg 48%
    13:00 +3°C° 0 mm 2 mps 749 mmHg 47%
    14:00 +4°C° 0 mm 2 mps 748 mmHg 47%
    15:00 +4°C° 0 mm 2 mps 748 mmHg 46%
    16:00 +3°C° 0 mm 1 mps 748 mmHg 51%
    17:00 +2°C° 0 mm 1 mps 748 mmHg 55%
    18:00 0°C° 0 mm 0 mps 748 mmHg 59%
    19:00 +1°C° 0 mm 1 mps 748 mmHg 60%
    20:00 +1°C° 0 mm 1 mps 748 mmHg 60%
    21:00 +1°C° 0 mm 1 mps 747 mmHg 60%
    22:00 +1°C° 0 mm 1 mps 747 mmHg 60%
    23:00 +1°C° 0 mm 1 mps 747 mmHg 61%

    Tomorrow, 23 November, Thursday

    Time Temperature Precipitation Wind Pressure Humidity
    00:00 +1°C° 0 mm 1 mps 747 mmHg 61%
    01:00 -1°C° 0 mm 2 mps 746 mmHg 61%
    02:00 -1°C° 0 mm 2 mps 746 mmHg 61%
    03:00 -1°C° 0 mm 2 mps 746 mmHg 62%
    04:00 -1°C° 0 mm 2 mps 745 mmHg 62%
    05:00 -1°C° 0 mm 2 mps 745 mmHg 63%
    06:00 -2°C° 0 mm 3 mps 745 mmHg 64%
    07:00 -1°C° 0 mm 3 mps 745 mmHg 60%
    08:00 0°C° 0 mm 3 mps 745 mmHg 55%
    09:00 0°C° 0 mm 4 mps 745 mmHg 51%
    10:00 +1°C° 0 mm 4 mps 744 mmHg 48%
    11:00 +4°C° 0 mm 4 mps 744 mmHg 46%
    12:00 +5°C° 0 mm 4 mps 743 mmHg 43%
    13:00 +5°C° 0 mm 4 mps 743 mmHg 45%
    14:00 +5°C° 0 mm 3 mps 742 mmHg 47%
    15:00 +5°C° 0 mm 3 mps 742 mmHg 49%
    16:00 +4°C° 0 mm 3 mps 742 mmHg 54%
    17:00 +4°C° 0 mm 2 mps 742 mmHg 59%
    18:00 +3°C° 0 mm 2 mps 742 mmHg 64%
    19:00 +2°C° 0 mm 2 mps 742 mmHg 65%
    20:00 +2°C° 0 mm 2 mps 743 mmHg 67%
    21:00 +2°C° 0 mm 2 mps 743 mmHg 68%
    22:00 +2°C° 0 mm 2 mps 743 mmHg 69%
    23:00 +1°C° 0 mm 2 mps 742 mmHg 71%

    Day after tomorrow, 24 November, Friday

    Time Temperature Precipitation Wind Pressure Humidity
    00:00 +1°C° 0 mm 2 mps 742 mmHg 72%
    01:00 +1°C° 0 mm 2 mps 742 mmHg 73%
    02:00 +1°C° 0 mm 2 mps 742 mmHg 74%
    03:00 +1°C° 0 mm 2 mps 742 mmHg 75%
    04:00 +1°C° 0 mm 2 mps 742 mmHg 76%
    05:00 +1°C° 0 mm 2 mps 741 mmHg 77%
    06:00 -1°C° 0 mm 2 mps 741 mmHg 77%
    07:00 +1°C° 0 mm 3 mps 741 mmHg 73%
    08:00 +2°C° 0 mm 3 mps 741 mmHg 69%
    09:00 +3°C° 0 mm 4 mps 741 mmHg 65%
    10:00 +5°C° 0 mm 4 mps 741 mmHg 62%
    11:00 +7°C° 0 mm 5 mps 740 mmHg 59%
    12:00 +8°C° 0 mm 5 mps 739 mmHg 56%
    13:00 +9°C° 0 mm 5 mps 738 mmHg 57%
    14:00 +9°C° 0 mm 5 mps 738 mmHg 58%
    15:00 +9°C° 0 mm 5 mps 737 mmHg 59%
    16:00 +8°C° 0 mm 5 mps 737 mmHg 63%
    17:00 +7°C° 0 mm 5 mps 736 mmHg 67%
    18:00 +5°C° 0 mm 6 mps 736 mmHg 70%
    19:00 +5°C° 0 mm 6 mps 736 mmHg 71%
    20:00 +5°C° 0 mm 6 mps 736 mmHg 72%
    21:00 +5°C° 0 mm 6 mps 736 mmHg 72%
    22:00 +6°C° 0.2 mm 5 mps 736 mmHg 75%
    23:00 +6°C° 0.2 mm 5 mps 736 mmHg 78%

    25 November, Saturday

    Time Temperature Precipitation Wind Pressure Humidity
    00:00 +6°C° 0.2 mm 5 mps 736 mmHg 81%
    01:00 +6°C° 0 mm 5 mps 736 mmHg 84%
    02:00 +6°C° 0 mm 4 mps 736 mmHg 86%
    03:00 +6°C° 0 mm 4 mps 736 mmHg 89%
    04:00 +5°C° 0 mm 3 mps 736 mmHg 89%
    05:00 +5°C° 0 mm 3 mps 736 mmHg 88%
    06:00 +4°C° 0 mm 3 mps 737 mmHg 88%
    07:00 +5°C° 0 mm 4 mps 737 mmHg 80%
    08:00 +6°C° 0 mm 4 mps 737 mmHg 72%
    09:00 +7°C° 0 mm 5 mps 738 mmHg 65%
    10:00 +8°C° 0 mm 6 mps 738 mmHg 59%
    11:00 +9°C° 0 mm 7 mps 738 mmHg 53%
    12:00 +10°C° 0 mm 8 mps 738 mmHg 47%
    13:00 +9°C° 0 mm 7 mps 738 mmHg 47%
    14:00 +9°C° 0 mm 7 mps 738 mmHg 47%
    15:00 +9°C° 0 mm 6 mps 738 mmHg 47%
    16:00 +7°C° 0 mm 6 mps 739 mmHg 52%
    17:00 +6°C° 0 mm 5 mps 739 mmHg 56%
    18:00 +5°C° 0 mm 4 mps 740 mmHg 61%
    19:00 +4°C° 0 mm 4 mps 740 mmHg 63%
    20:00 +3°C° 0 mm 4 mps 740 mmHg 65%
    21:00 +3°C° 0 mm 4 mps 741 mmHg 67%
    22:00 +1°C° 0 mm 4 mps 741 mmHg 68%
    23:00 0°C° 0 mm 4 mps 741 mmHg 69%

    26 November, Sunday

    Time Temperature Precipitation Wind Pressure Humidity
    00:00 0°C° 0 mm 4 mps 742 mmHg 70%
    01:00 -1°C° 0 mm 4 mps 742 mmHg 71%
    02:00 -1°C° 0 mm 4 mps 743 mmHg 72%
    03:00 -2°C° 0 mm 4 mps 743 mmHg 73%
    04:00 -2°C° 0 mm 4 mps 744 mmHg 73%
    05:00 -2°C° 0 mm 4 mps 744 mmHg 73%
    06:00 -3°C° 0 mm 4 mps 745 mmHg 73%
    07:00 -2°C° 0 mm 4 mps 746 mmHg 70%
    08:00 -1°C° 0 mm 4 mps 746 mmHg 66%
    09:00 0°C° 0 mm 4 mps 747 mmHg 63%
    10:00 +1°C° 0 mm 4 mps 747 mmHg 60%
    11:00 +2°C° 0 mm 3 mps 747 mmHg 57%
    12:00 +3°C° 0 mm 3 mps 747 mmHg 55%
    13:00 +3°C° 0 mm 3 mps 747 mmHg 55%
    14:00 +3°C° 0 mm 3 mps 747 mmHg 54%
    15:00 +4°C° 0 mm 3 mps 747 mmHg 54%
    16:00 +3°C° 0 mm 2 mps 747 mmHg 59%
    17:00 +3°C° 0 mm 1 mps 747 mmHg 63%
    18:00 +2°C° 0 mm 1 mps 748 mmHg 68%
    19:00 +2°C° 0 mm 1 mps 748 mmHg 68%
    20:00 +1°C° 0 mm 1 mps 748 mmHg 69%
    21:00 0°C° 0 mm 0 mps 748 mmHg 69%
    22:00 +1°C° 0 mm 1 mps 748 mmHg 70%
    23:00 +1°C° 0 mm 1 mps 748 mmHg 70%

    27 November, Monday

    Time Temperature Precipitation Wind Pressure Humidity
    00:00 -1°C° 0 mm 2 mps 747 mmHg 71%
    01:00 -1°C° 0 mm 2 mps 747 mmHg 72%
    02:00 -2°C° 0 mm 2 mps 747 mmHg 73%
    03:00 -2°C° 0 mm 3 mps 747 mmHg 74%
    04:00 -2°C° 0 mm 3 mps 747 mmHg 74%
    05:00 -1°C° 0 mm 3 mps 747 mmHg 74%
    06:00 -2°C° 0 mm 4 mps 747 mmHg 73%
    07:00 -1°C° 0 mm 4 mps 747 mmHg 69%
    08:00 0°C° 0 mm 5 mps 747 mmHg 64%
    09:00 +1°C° 0 mm 6 mps 747 mmHg 60%
    10:00 +3°C° 0 mm 6 mps 746 mmHg 56%
    11:00 +4°C° 0 mm 6 mps 746 mmHg 53%
    12:00 +7°C° 0 mm 6 mps 745 mmHg 49%
    13:00 +7°C° 0 mm 6 mps 744 mmHg 50%
    14:00 +7°C° 0 mm 5 mps 744 mmHg 52%
    15:00 +8°C° 0 mm 5 mps 743 mmHg 53%
    16:00 +7°C° 0 mm 5 mps 743 mmHg 56%
    17:00 +6°C° 0 mm 5 mps 743 mmHg 60%
    18:00 +5°C° 0 mm 5 mps 743 mmHg 64%
    19:00 +5°C° 0 mm 5 mps 743 mmHg 63%
    20:00 +5°C° 0 mm 5 mps 743 mmHg 63%
    21:00 +5°C° 0 mm 5 mps 743 mmHg 63%
    22:00 +4°C° 0 mm 6 mps 743 mmHg 63%
    23:00 +4°C° 0 mm 6 mps 743 mmHg 63%
    Show more